[Iaude] MPEC T30: 2013 FC11 [a=2.40,e=0.53,i=3.5,H=20.37]

mpec at marsden.cfa.harvard.edu mpec at marsden.cfa.harvard.edu
Thu Oct 5 10:10:48 EDT 2023


M.P.E.C. 2023-T30                               Issued 2023 October 5, 14:09 UT

     The Minor Planet Electronic Circulars contain information on unusual
         minor planets, routine data on comets and natural satellites,
         and occasional editorial announcements.  They are published
    on behalf of Division F of the International Astronomical Union by the
          Minor Planet Center, Smithsonian Astrophysical Observatory,
                          Cambridge, MA 02138, U.S.A.
			  
             Prepared using the Tamkin Foundation Computer Network

                              MPC at CFA.HARVARD.EDU
            URL https://www.minorplanetcenter.net/    ISSN 1523-6714

                                   2013 FC11                                    


                           Revision to MPEC 2013-F43                            

Additional Observations:
     K13F11C  C2008 09 07.27075 23 09 02.23 -03 03 51.4          21.7 GVET030G96
     K13F11C  C2008 09 07.27725 23 09 01.71 -03 03 54.2          21.2 GVET030G96
     K13F11C 1C2023 09 19.28301500 27 00.320+03 26 00.31         20.97GVET030G96
     K13F11C 1C2023 09 19.28821200 27 00.061+03 25 57.50         21.17GVET030G96
     K13F11C 1C2023 09 19.29341400 26 59.824+03 25 54.73         21.15GVET030G96
     K13F11C 1C2023 09 19.29862900 26 59.579+03 25 51.92         21.48GVET030G96
     K13F11C  C2023 09 22.43639100 24 33.975+02 56 51.81         21.13wXET030F51
     K13F11C  C2023 09 22.44835900 24 33.307+02 56 44.78         21.06wXET030F51
     K13F11C  C2023 09 22.46041000 24 32.665+02 56 37.72         20.96wXET030F51
     K13F11C  C2023 09 22.47357300 24 31.933+02 56 30.06         21.00wXET030F51
     K13F11C 0C2023 09 26.30597100 21 11.833+02 17 03.19         21.02GVET030G96
     K13F11C 0C2023 09 26.31201300 21 11.524+02 17 00.06         20.19GVET030G96
     K13F11C 0C2023 09 26.31671500 21 11.228+02 16 56.46         21.43GVET030G96
     K13F11C 0C2023 09 26.32143300 21 10.962+02 16 53.51               VET030G96

Observer details:
F51 Pan-STARRS 1, Haleakala.  Observers J. Bulger, T. Lowe, A. Schultz, I.
    Smith.  Measurers K. Chambers, S. Chastel, T. de Boer, J. Fairlamb, H.
    Gao, M. Huber, C.-C. Lin, E. Magnier, Y. Ramanjooloo, R. Wainscoat, R.
    Weryk.  1.8-m Ritchey-Chretien + CCD.
G96 Mt. Lemmon Survey.  Observers R. A. Kowalski, J. K. Hogan.  Measurers B.
    Gray, D. Rankin, F. C. Shelly, E. J. Christensen, D. Fay, J. B. Fazekas,
    D. C. Fuls, A. R. Gibbs, A. D. Grauer, H. Groeller, J. K. Hogan, R. A.
    Kowalski, S. M. Larson, G. J. Leonard, R. L. Seaman, A. Serrano, K. W.
    Wierzchos, M. T. Mazzucato, T. G. Fisher, P. Maiorana, F. Helk, V. Gonano,
    X. Liao, C. S. Tolliver, E. Chaghafi.  1.5-m reflector + CCD, 1.5-m
    reflector + 10K CCD.

First and last observations above in comparison with prediction:
Residuals in seconds of arc (or two decimals in degrees), reference and Delta-T
080907 G96 0.42- 0.16-    230926 G96 2.28- 0.83-    E2023-OB0   +1.32 days

Orbital elements:
2013 FC11                                                Earth MOID = 0.1650 AU
Epoch 2023 Sept. 13.0 TT = JDT 2460200.5                Veres                   
M 327.43786              (2000.0)            P               Q                  
n   0.26438261     Peri.  264.05711     +0.03723786     -0.99929826             
a   2.4042564      Node   183.81583     +0.93919895     +0.03637941             
e   0.5270766      Incl.    3.48214     +0.34134832     +0.00891824             
P   3.73           H   20.37          G   0.15           U   2                  
Residuals in seconds of arc
080907 G96  0.4+  0.5-    130404 F51  0.2-  0.1+    230919 G96  0.1+  0.2+
080907 G96  0.4-  0.4+    130404 F51  0.7-  0.3+    230919 G96  0.1-  0.1+
130319 F51  0.1+  0.3-    130404 F51  0.4-  0.1-    230919 G96  0.1+  0.0
130319 F51  0.3-  0.1-    130404 F51  0.3-  0.2-    230919 G96  0.2+  0.0
130319 F51  0.2-  0.2-    130407 291  0.5+  0.2+    230922 F51  0.1+  0.0
130319 F51  0.1+  0.1-    130407 291  0.3-  0.0     230922 F51  0.1-  0.0
130322 H21  0.3-  0.2+    130410 568  0.0   0.1+    230922 F51  0.1+  0.1-
130322 H21  0.2-  0.1+    130410 568  0.1-  0.0     230922 F51  0.2-  0.0
130322 H21  0.3-  0.1-    130410 568  0.1-  0.1+    230926 G96  0.5-  0.3-
130323 711  2.4+  0.9-    130414 H21  0.5-  0.3-    230926 G96  0.3+  0.5+
130323 711  0.6+  0.0     130414 H21  0.1-  0.0     230926 G96  0.1+  0.1-
130323 711  0.8+  0.1+    130414 H21  0.4-  0.2-    230926 G96  0.4+  0.0

Ephemeris:
2013 FC11                a,e,i = 2.40, 0.53, 3                   q = 1.1370
Date    TT    R. A. (2000) Decl.     Delta      r    Elong.  Phase     V
2023 09 05    00 33 56.3 +04 58 24   0.8378  1.7923   152.1    15.3    22.1
...
2023 09 20    00 26 28.5 +03 19 45   0.6920  1.6891   169.1     6.5    21.2
...
2023 09 28    00 19 36.5 +01 58 31   0.6321  1.6343   179.0     0.6    20.6
...
2023 10 04    00 13 32.5 +00 47 11   0.5955  1.5934   173.2     4.3    20.6
2023 10 05    00 12 28.9 +00 34 38   0.5901  1.5866   171.9     5.1    20.7
2023 10 06    00 11 24.7 +00 21 57   0.5849  1.5799   170.6     6.0    20.7
...
2023 10 12    00 04 56.1 -00 56 10   0.5577  1.5396   162.6    11.2    20.7
...
2023 10 20    23 56 50.8 -02 39 33   0.5315  1.4867   152.1    18.3    20.8
...
2023 11 04    23 47 20.5 -05 16 51   0.5065  1.3920   133.9    30.9    20.9

A. U. Tomatic                (C) Copyright 2023 MPC           M.P.E.C. 2023-T30





More information about the Iaude mailing list